Location: Newark
(45.6833°N, 12.6333°E)
Time: 22:15:51
(UTC+00:00)

N. Korean satellite - Pass Details

Date: 20 November 2019
Orbit: 455 x 507 km, 97.2° (Epoch: 13 December)

Event Time Altitude Azimuth Distance (km) Brightness Sun altitude
Rises 16:18:29 0° 173° (S) 2,559 10.4 -7.9°
Reaches altitude 10° 16:20:32 10° 176° (S) 1,690 9.5 -8.2°
Maximum altitude 16:24:10 67° 259° (W) 548 7.1 -8.8°
Drops below altitude 10° 16:27:52 10° 343° (NNW) 1,726 9.4 -9.4°
Sets 16:29:59 0° 346° (NNW) 2,619 10.2 -9.8°
